This demonstration page uses our WeatherBlox Daily Observations layout. Learn more.

Hourly Observations for October 30, 2016

Temp ( °F °C ) Dew Point ( °F °C ) Humidity (%) Winds ( mph kmh ) Pressure ( in mb ) Visibility ( mi km ) Precip ( " mm )
12:15 am 00:15 Mostly Cloudy 48 8.8 41 5.2 78 78 NNE 15 24 30.21 1023 10 16.09344 0 0
12:35 am 00:35 Mostly Cloudy 47 8.3 42 5.3 82 82 N 12 19 30.21 1023 10 16.09344 0 0
12:55 am 00:55 Cloudy 47 8.2 42 5.4 83 83 N 12 19 30.21 1023 10 16.09344 0 0
1:15 am 01:15 Cloudy 47 8.1 42 5.3 83 83 N 9 15 30.21 1023 10 16.09344 0 0
1:35 am 01:35 Mostly Cloudy 46 8 41 5.1 82 82 N 12 19 30.24 1024 10 16.09344 0 0
1:55 am 01:55 Partly Cloudy 45 7.2 41 4.9 85 85 N 7 11 30.27 1025 10 16.09344 0 0
2:15 am 02:15 Clear 45 7 41 4.8 86 86 N 7 11 30.27 1025 10 16.09344 0 0
2:35 am 02:35 Mostly Cloudy 44 6.5 40 4.7 88 88 N 8 13 30.27 1025 10 16.09344 0 0
2:55 am 02:55 Cloudy 44 6.6 41 5 90 90 N 7 11 30.27 1025 10 16.09344 0 0
3:15 am 03:15 Cloudy 45 7 42 5.3 89 89 N 7 11 30.27 1025 10 16.09344 0 0
3:35 am 03:35 Cloudy 46 7.5 42 5.5 87 87 N 9 15 30.27 1025 10 16.09344 0 0
3:55 am 03:55 Cloudy 46 7.7 42 5.5 86 86 N 7 11 30.27 1025 10 16.09344 0 0
4:10 am 04:10 Cloudy 46 7.8 42 5.5 86 86 N 8 13 30.27 1025 10 16.09344 0 0
4:35 am 04:35 Cloudy 46 7.7 41 5.1 84 84 N 12 19 30.27 1025 10 16.09344 0 0
4:55 am 04:55 Mostly Cloudy 44 6.9 40 4.6 85 85 N 7 11 30.27 1025 10 16.09344 0 0
5:15 am 05:15 Clear 43 6.1 40 4.2 88 88 N 7 11 30.27 1025 10 16.09344 0 0
5:35 am 05:35 Clear 42 5.5 39 3.8 89 89 N 6 9 30.27 1025 10 16.09344 0 0
5:55 am 05:55 Clear 41 4.8 38 3.5 91 91 N 5 7 30.33 1027 7 11.265408 0 0
6:15 am 06:15 Clear 39 4.1 37 2.8 91 91 NNE 7 11 30.33 1027 10 16.09344 0 0
6:35 am 06:35 Clear 39 4 37 2.9 93 93 N 6 9 30.33 1027 10 16.09344 0 0
6:55 am 06:55 Clear 38 3.5 36 2.4 93 93 N 6 9 30.3 1026 10 16.09344 0 0
7:15 am 07:15 Clear 37 3 35 1.8 92 92 N 5 7 30.33 1027 10 16.09344 0 0
7:35 am 07:35 Partly Cloudy 38 3.2 36 2.3 94 94 NNE 10 17 30.33 1027 10 16.09344 0 0
7:55 am 07:55 Cloudy 40 4.3 38 3.5 95 95 NNE 5 7 30.33 1027 10 16.09344 0 0
8:15 am 08:15 Cloudy 40 4.6 39 3.9 95 95 NNE 10 17 30.33 1027 10 16.09344 0 0
8:35 am 08:35 Cloudy with Mist and Fog 40 4.5 39 3.7 95 95 NNE 7 11 30.33 1027 4 6.437376 0 0
8:55 am 08:55 Cloudy 41 5 40 4.2 95 95 ENE 9 15 30.3 1026 10 16.09344 0 0
9:15 am 09:15 Cloudy 40 4.6 39 4 96 96 NNE 3 6 30.33 1027 10 16.09344 0 0
9:35 am 09:35 Cloudy 40 4.7 39 4 95 95 E 5 7 30.36 1028 10 16.09344 0 0
9:55 am 09:55 Cloudy 41 5.1 40 4.3 95 95 ESE 3 6 30.36 1028 10 16.09344 0 0
10:15 am 10:15 Cloudy 41 5.1 40 4.2 94 94 Calm 30.36 1028 10 16.09344 0 0
10:35 am 10:35 Cloudy 42 5.6 40 4.5 93 93 ENE 3 6 30.33 1027 10 16.09344 0 0
10:55 am 10:55 Cloudy 43 5.9 40 4.4 90 90 ENE 3 6 30.3 1026 10 16.09344 0 0
11:15 am 11:15 Cloudy 43 6.2 40 4.5 89 89 Calm 30.33 1027 10 16.09344 0 0
11:35 am 11:35 Cloudy 43 6.2 40 4.4 88 88 Calm 30.3 1026 10 16.09344 0 0
11:55 am 11:55 Cloudy 44 6.7 40 4.6 87 87 E 3 6 30.3 1026 10 16.09344 0 0
12:15 pm 12:15 Cloudy 46 7.9 40 4.7 80 80 ENE 5 7 30.3 1026 10 16.09344 0 0
12:35 pm 12:35 Cloudy 46 7.7 40 4.7 82 82 Calm 30.3 1026 10 16.09344 0 0
12:55 pm 12:55 Mostly Cloudy 47 8.6 41 5 78 78 E 3 6 30.27 1025 10 16.09344 0 0
1:15 pm 13:15 Sunny 49 9.3 41 4.9 74 74 NE 3 6 30.24 1024 10 16.09344 0 0
1:35 pm 13:35 Sunny 50 10.1 41 5 71 71 E 6 9 30.21 1023 10 16.09344 0 0
1:55 pm 13:55 Sunny 52 11.1 41 5.1 67 67 E 8 13 30.18 1022 10 16.09344 0 0
2:15 pm 14:15 Sunny 53 11.7 41 5.1 64 64 ESE 9 15 30.15 1021 10 16.09344 0 0
2:35 pm 14:35 Sunny 54 12.1 41 5 62 62 SE 7 11 30.15 1021 10 16.09344 0 0
2:55 pm 14:55 Sunny 56 13.2 41 5.1 58 58 SE 7 11 30.15 1021 10 16.09344 0 0
3:15 pm 15:15 Sunny 57 13.9 41 5 55 55 SE 8 13 30.09 1019 10 16.09344 0 0
3:35 pm 15:35 Sunny 57 14.1 40 4.7 53 53 SE 12 19 30.09 1019 10 16.09344 0 0
3:55 pm 15:55 Sunny 58 14.3 40 4.6 52 52 SE 10 17 30.09 1019 10 16.09344 0 0
4:15 pm 16:15 Sunny 59 14.8 40 4.7 51 51 SE 9 15 30.09 1019 10 16.09344 0 0
4:35 pm 16:35 Sunny 60 15.7 41 4.8 49 49 SSE 13 20 30.09 1019 10 16.09344 0 0
4:55 pm 16:55 Sunny 58 14.7 40 4.7 51 51 SSE 13 20 30.09 1019 10 16.09344 0 0
5:15 pm 17:15 Sunny 58 14.6 41 4.9 52 52 SSE 14 22 30.09 1019 10 16.09344 0 0
5:35 pm 17:35 Sunny 58 14.4 41 5.1 54 54 SSE 13 20 30.09 1019 10 16.09344 0 0
5:55 pm 17:55 Sunny 57 13.7 41 5 56 56 SSE 10 17 30.06 1018 10 16.09344 0 0
6:15 pm 18:15 Sunny 56 13.1 41 5.1 59 59 S 9 15 30.09 1019 10 16.09344 0 0
6:35 pm 18:35 Sunny 53 11.9 41 5.1 63 63 S 8 13 30.09 1019 10 16.09344 0 0
6:55 pm 18:55 Clear 53 11.5 42 5.3 66 66 S 7 11 30.09 1019 10 16.09344 0 0
7:15 pm 19:15 Clear 52 10.9 42 5.3 69 69 S 8 13 30.09 1019 10 16.09344 0 0
7:35 pm 19:35 Clear 50 10.2 42 5.3 72 72 S 7 11 30.15 1021 10 16.09344 0 0
7:55 pm 19:55 Clear 50 9.9 42 5.3 73 73 S 9 15 30.12 1020 10 16.09344 0 0
8:15 pm 20:15 Clear 50 9.8 42 5.3 74 74 SSE 6 9 30.12 1020 10 16.09344 0 0
8:35 pm 20:35 Clear 47 8.6 41 5 78 78 SSE 7 11 30.12 1020 10 16.09344 0 0
8:55 pm 20:55 Clear 47 8.5 41 5 79 79 SSE 8 13 30.12 1020 10 16.09344 0 0
9:15 pm 21:15 Clear 47 8.6 42 5.3 80 80 S 7 11 30.12 1020 10 16.09344 0 0
9:35 pm 21:35 Clear 49 9.2 42 5.8 80 80 S 10 17 30.09 1019 10 16.09344 0 0
9:55 pm 21:55 Clear 50 9.8 43 6 77 77 S 12 19 30.06 1018 10 16.09344 0 0
10:15 pm 22:15 Clear 49 9.6 43 6 78 78 S 9 15 30.09 1019 10 16.09344 0 0
10:35 pm 22:35 Clear 49 9.3 43 6 80 80 S 7 11 30.06 1018 10 16.09344 0 0
10:55 pm 22:55 Clear 49 9.5 43 6.1 80 80 SSE 9 15 30.03 1017 10 16.09344 0 0
11:15 pm 23:15 Clear 49 9.7 43 6.1 78 78 S 8 13 30.03 1017 10 16.09344 0 0
11:35 pm 23:35 Clear 48 9.1 43 6.2 82 82 S 8 13 30.06 1018 10 16.09344 0 0
11:55 pm 23:55 Clear 48 9 44 6.4 84 84 S 12 19 30.03 1017 10 16.09344 0 0

Powered by AerisWeather